Terminal Aerodrome Forecast
Issued by NWS

Home | Current Version | Previous Version | Text Only | Print | Product List | Glossary On
Versions: 1 2 3 4 5 6 7 8 9 10 11 12
613
FTUS45 KFGZ 131720
TAFPRC
TAF
KPRC 131720Z 1318/1418 VRB05KT P6SM SKC
     FM140200 19006KT P6SM SKC=

USA.gov is the U.S. government's official web portal to all federal, state and local government web resources and services.